Wind_Speed
74 68 71 66 62 58 55 55 53 49 49 47 45 46 43 38 39 49 40 41 41 40 37 35 35 35 33 32 32 32 30 30 28 25 25 25 26 28 30 29 35 36 37 39 42 42 42 44 48
78 79 74 73 68 66 64 63 59 57 54 47 48 50 50 49 49 46 42 44 41 42 41 40 38 38 37 37 35 33 32 31 30 28 29 29 28 32 32 34 34 36 37 41 41 42 44 46 49
78 81 79 73 67 67 70 70 64 61 56 58 56 54 54 51 41 47 49 47 46 46 44 42 40 40 40 39 37 36 35 33 31 31 30 30 32 33 33 34 35 39 41 43 43 45 47 46 49
82 79 79 79 74 73 73 65 68 67 65 63 61 59 58 51 53 55 54 50 50 48 46 46 45 43 42 41 38 36 34 34 34 35 36 34 34 35 37 38 41 41 43 43 44 45 43 46 48
87 85 82 80 78 76 73 72 73 71 71 69 67 66 61 55 53 56 59 55 53 49 46 48 48 45 44 41 40 39 38 37 39 39 39 38 36 38 40 42 45 45 46 47 46 47 49 50 48
95 85 85 79 81 78 76 74 78 78 76 74 73 72 69 58 58 60 61 60 58 55 51 50 48 47 45 43 43 42 42 41 41 42 43 41 40 40 42 44 47 48 48 50 47 50 50 51 52
94 91 87 83 87 83 81 74 81 82 81 80 77 72 74 65 67 67 64 64 61 60 58 54 52 50 48 48 47 47 47 46 45 46 46 44 44 44 45 48 50 49 51 52 48 52 50 49 50
97 98 90 82 87 85 85 85 80 87 84 81 76 81 78 68 74 72 68 67 66 64 63 60 59 56 54 54 53 52 51 51 51 50 49 46 46 47 48 49 49 51 53 53 51 53 51 52 47
93 96 90 93 91 92 91 92 87 88 87 86 85 85 80 80 79 74 73 73 71 71 68 65 64 62 61 59 58 56 55 56 56 55 52 51 51 52 52 51 53 53 54 52 52 54 54 54 47
90 92 92 96 93 97 97 99 91 91 89 92 90 90 86 87 83 82 79 78 74 72 71 70 70 67 66 64 63 62 62 61 59 57 56 54 52 53 54 55 54 53 52 53 55 55 52 53 50
87 86 91 95 98 100 99 98 95 93 88 97 99 94 89 87 91 89 87 81 77 75 74 72 71 70 70 68 68 66 67 64 61 60 59 58 58 57 58 58 57 55 51 54 56 54 53 55 54
83 85 89 93 98 99 97 100 101 98 99 96 99 98 95 92 94 92 90 87 82 80 79 77 76 73 72 70 72 69 69 68 66 65 63 61 62 62 62 62 61 60 59 58 58 56 57 57 59
80 87 88 88 93 96 101 104 103 99 100 107 99 103 100 99 95 96 91 90 89 86 87 85 81 79 77 74 75 76 75 74 72 70 69 66 65 65 63 63 63 62 61 58 60 59 60 59 61
82 82 84 89 92 93 96 104 108 100 107 107 101 103 103 106 102 97 94 95 92 89 90 92 87 84 82 79 79 77 78 78 75 73 72 69 69 68 66 62 63 62 62 65 62 58 60 59 59
84 86 85 84 88 92 96 96 98 110 113 108 106 111 105 108 110 106 101 94 96 94 94 92 90 89 87 84 80 82 81 78 77 77 75 70 70 68 61 57 60 64 63 62 59 59 61 60 59
86 87 87 88 89 87 93 92 98 105 108 109 112 113 110 108 112 113 110 104 98 97 92 88 84 92 91 90 89 89 85 83 81 80 78 74 72 70 67 65 66 65 63 62 67 68 66 65 53
84 86 90 94 88 92 91 91 97 93 99 105 114 115 112 115 114 112 113 113 109 104 100 87 75 76 79 86 86 88 89 82 81 85 86 78 78 75 67 71 71 68 63 66 66 65 66 55 58
88 84 87 88 91 94 93 94 96 90 98 100 104 108 113 115 114 114 115 112 112 112 108 104 84 78 77 80 80 81 75 78 76 72 74 73 78 78 72 70 70 67 64 62 62 63 55 55 66
81 86 88 88 92 86 94 92 95 95 97 98 101 104 110 115 116 117 115 111 115 113 112 111 103 90 81 76 74 77 72 67 66 66 66 67 72 78 78 76 72 70 66 58 63 50 53 62 72
80 83 86 91 90 86 90 92 94 96 98 101 100 101 104 107 110 110 117 117 113 113 113 112 109 104 100 90 75 68 79 68 64 71 66 65 63 71 79 72 71 65 57 61 56 54 62 70 73
76 79 82 87 89 89 93 92 95 98 96 98 100 101 101 102 104 106 107 113 113 114 110 113 112 111 108 102 84 65 74 75 76 68 77 67 69 74 67 65 61 60 55 56 52 62 69 73 81
70 74 75 79 84 89 92 92 95 98 100 101 101 102 101 99 101 104 108 108 106 104 106 108 113 112 112 104 100 99 93 68 66 65 63 70 77 59 58 68 64 64 67 55 68 77 78 82 86
63 66 67 74 76 82 87 92 97 99 100 102 102 102 102 102 102 103 105 106 106 105 106 107 106 107 108 108 106 103 93 89 77 57 54 79 49 59 65 59 75 68 65 68 84 81 80 85 77
63 63 64 67 73 74 76 86 88 98 100 101 100 102 100 99 100 102 104 106 108 110 109 108 104 106 108 108 109 110 103 89 86 79 64 74 67 52 39 69 64 64 78 89 91 83 83 74 75
67 67 64 66 68 65 76 75 80 88 90 97 99 99 100 100 99 100 103 104 105 111 111 111 111 109 111 108 109 109 108 108 101 97 95 102 85 74 84 90 86 89 96 96 91 85 77 80 74
66 69 70 69 68 66 77 68 75 80 82 88 93 95 96 99 102 102 103 104 103 106 111 113 116 116 114 111 111 107 110 113 111 109 106 104 100 89 80 85 95 92 96 92 87 81 80 72 72
65 69 71 72 71 70 69 67 72 74 82 84 88 89 94 95 98 104 105 105 108 104 99 98 111 116 119 119 114 112 108 97 102 104 106 102 100 96 95 93 88 89 89 89 83 77 74 67 76
58 65 71 72 73 74 71 72 73 82 81 84 85 86 88 92 95 99 104 108 108 109 109 113 105 110 118 121 119 113 110 109 100 95 93 94 92 91 91 91 90 85 84 79 77 75 70 82 85
55 59 64 71 72 75 74 76 81 82 84 81 86 88 90 91 93 97 102 106 109 110 113 114 117 114 107 109 115 115 113 115 103 95 88 91 89 89 87 82 78 78 77 74 72 78 85 89 90
51 55 60 63 68 73 76 74 81 85 84 84 87 87 91 90 93 96 98 103 105 106 107 112 116 124 117 108 109 109 109 108 107 105 97 95 91 87 87 83 79 76 73 78 81 88 88 89 95
Wind_Direction
238 235 236 233 229 233 234 236 228 218 223 226 212 216 217 220 224 227 224 227 232 232 234 240 246 247 251 256 259 264 267 268 267 277 285 287 293 299 304 311 316 316 319 321 325 327 330 328 325
243 237 238 235 234 235 235 234 234 226 234 230 220 218 218 219 228 229 229 228 229 233 234 237 242 247 249 255 257 261 264 263 262 274 279 287 295 301 302 307 309 312 316 318 322 326 324 326 326
243 239 235 235 235 238 235 237 233 238 233 229 219 220 222 225 226 227 228 229 228 232 236 238 242 244 247 251 252 253 257 261 263 270 274 285 290 294 301 301 306 308 314 321 323 326 326 326 328
241 239 241 236 237 238 245 235 229 235 229 226 228 226 223 222 228 226 228 229 231 234 237 239 241 243 246 247 249 251 254 257 259 265 274 279 287 294 296 300 301 307 316 318 320 322 323 324 328
237 238 237 236 240 237 238 244 235 234 232 228 228 230 227 225 235 234 227 232 233 237 241 240 240 240 243 244 246 249 252 254 260 265 270 277 283 289 293 297 300 307 314 317 320 321 322 323 325
240 241 239 240 237 237 235 240 235 231 228 230 228 228 230 224 235 240 235 230 234 237 241 241 241 241 242 245 248 251 254 258 261 266 270 277 283 289 293 296 299 304 310 315 319 322 320 325 324
242 243 238 236 232 239 240 235 234 232 232 231 230 233 228 224 232 239 239 234 238 238 240 241 245 245 249 249 252 256 258 262 264 268 270 275 280 285 291 295 300 301 306 312 315 320 321 323 323
241 241 240 233 234 237 235 237 230 235 233 233 232 231 231 226 231 234 237 239 240 242 242 241 243 247 250 253 255 258 259 263 265 268 271 274 280 284 290 295 298 301 303 306 313 317 322 320 320
240 240 239 234 235 232 235 234 231 232 234 234 234 235 231 231 234 235 237 237 239 243 245 244 246 247 249 251 254 257 259 260 264 266 268 273 277 282 288 293 297 298 301 305 309 314 319 322 316
238 237 236 235 233 231 231 232 234 234 233 233 229 233 233 231 233 235 237 241 239 240 243 245 248 248 251 254 255 257 260 261 264 266 269 273 277 281 288 293 295 299 300 303 308 314 320 323 316
238 237 234 234 234 233 235 234 234 235 234 233 230 229 235 235 234 235 235 239 243 243 246 246 247 249 251 252 255 256 259 262 266 268 269 272 276 281 286 291 291 298 299 304 307 312 316 319 315
239 238 237 235 234 235 236 234 234 232 232 232 234 231 230 235 238 236 237 238 241 246 247 248 248 250 250 252 253 256 259 263 266 267 269 272 277 282 285 289 292 295 298 302 307 309 311 314 314
239 239 238 238 238 235 235 232 233 233 233 234 233 232 231 229 235 239 238 239 240 243 247 248 250 250 252 253 254 257 259 263 265 267 270 274 277 281 284 287 291 295 296 300 304 307 310 314 312
240 240 239 238 238 238 237 235 233 231 233 233 234 235 232 233 232 234 238 239 241 242 246 247 249 251 255 256 257 257 260 262 266 269 272 274 276 280 282 288 292 295 297 301 303 302 306 308 311
241 240 238 237 239 238 239 238 236 234 231 231 234 238 234 234 233 234 233 237 240 243 243 248 249 251 254 256 260 260 259 263 266 269 273 275 278 281 288 286 287 294 300 301 297 302 305 310 315
241 240 240 239 239 239 240 237 238 236 237 233 234 240 235 234 237 235 237 235 235 239 244 246 252 253 254 257 259 261 264 265 269 269 270 273 278 280 282 285 288 292 296 296 297 300 305 310 314
242 240 240 240 239 240 239 238 240 238 239 237 236 239 241 239 237 239 238 238 237 236 238 239 242 252 253 256 259 263 267 270 269 271 271 273 276 279 283 285 286 291 295 294 295 302 307 310 313
242 242 242 240 238 241 240 239 239 238 240 238 239 239 240 241 239 240 242 242 243 239 237 239 238 247 253 253 255 260 262 262 264 267 269 272 274 276 279 283 285 291 294 290 290 302 302 310 316
245 242 242 240 242 235 241 238 240 238 239 240 238 238 240 241 240 241 242 243 243 244 242 239 237 240 248 256 254 255 257 257 258 258 260 266 270 276 274 281 288 291 290 287 299 293 297 308 313
244 243 242 242 240 238 238 240 239 239 237 238 239 239 239 240 242 242 242 242 245 245 246 246 242 240 245 246 256 249 255 251 259 256 259 264 264 271 282 281 285 290 282 283 292 291 299 305 308
244 243 243 243 242 240 239 238 239 239 238 237 238 239 240 241 242 243 243 242 244 245 247 247 248 244 245 248 245 236 240 254 255 258 270 259 259 270 275 280 282 281 277 286 286 294 299 302 304
243 243 243 243 243 241 240 239 239 239 239 238 238 239 240 241 241 241 243 243 243 245 245 246 247 247 247 249 248 245 249 246 254 258 258 261 268 269 280 284 280 275 277 275 284 291 295 299 301
243 243 243 242 243 242 241 239 241 240 239 239 239 240 241 241 241 240 241 242 241 242 242 243 243 244 245 246 246 249 242 242 247 245 293 272 254 282 292 262 267 270 267 274 287 292 296 297 299
241 242 241 242 241 242 243 240 240 241 240 240 239 239 240 240 241 241 240 241 240 240 240 242 243 242 243 243 244 246 241 240 239 237 228 244 264 270 267 259 261 264 275 284 287 292 293 295 301
240 240 240 241 242 241 241 242 239 241 240 241 240 240 239 239 239 239 240 240 242 242 240 240 241 239 240 241 241 243 243 243 244 244 243 248 255 256 241 260 267 272 279 283 287 291 290 295 295
240 242 240 240 241 240 240 239 243 244 240 242 241 238 238 239 238 238 238 241 239 240 243 242 239 240 241 241 240 238 242 246 247 248 250 250 253 256 249 254 265 272 276 282 286 290 291 289 288
240 238 240 241 241 240 245 238 243 241 243 240 242 240 237 236 237 237 237 238 240 240 231 238 244 243 242 241 242 237 238 240 244 246 251 252 254 256 251 260 266 269 278 280 285 287 286 282 288
239 240 241 240 240 242 242 243 241 243 240 242 241 241 241 238 235 235 235 236 236 238 237 230 231 239 242 243 241 239 236 237 238 244 247 251 249 252 257 261 267 270 276 277 282 280 276 285 288
241 239 241 240 240 242 240 244 244 245 244 242 243 244 240 241 241 238 235 235 235 235 237 237 233 231 233 237 243 242 238 236 237 242 240 242 246 256 260 262 265 268 269 269 270 272 278 284 288
246 241 241 242 242 241 242 243 249 246 248 245 244 244 245 244 241 242 241 238 236 236 237 240 236 230 229 230 233 236 241 242 242 242 238 241 251 254 256 257 258 259 258 263 266 274 282 289 288
Height
10906 10910 10915 10918 10924 10929 10931 10937 10943 10947 10946 10950 10951 10951 10954 10955 10957 10954 10964 10963 10964 10966 10968 10970 10972 10973 10974 10975 10977 10977 10977 10978 10978 10979 10978 10978 10978 10977 10975 10973 10972 10970 10968 10965 10960 10956 10951 10948 10943
10892 10897 10902 10907 10914 10921 10923 10925 10937 10935 10938 10949 10946 10943 10945 10946 10949 10955 10959 10958 10960 10961 10961 10963 10965 10968 10969 10970 10971 10972 10973 10973 10974 10975 10975 10975 10974 10973 10972 10970 10968 10966 10964 10960 10957 10953 10949 10944 10939
10875 10881 10886 10897 10901 10910 10909 10918 10925 10931 10938 10936 10938 10938 10937 10942 10950 10950 10949 10952 10953 10954 10956 10958 10960 10961 10962 10964 10965 10966 10967 10968 10970 10970 10971 10971 10970 10969 10969 10967 10964 10961 10960 10957 10954 10950 10945 10940 10935
10859 10864 10871 10881 10891 10896 10902 10911 10912 10919 10923 10926 10930 10930 10931 10938 10934 10941 10942 10945 10947 10947 10949 10953 10953 10955 10956 10958 10961 10961 10962 10963 10964 10965 10966 10966 10966 10965 10964 10962 10959 10957 10955 10952 10949 10945 10941 10936 10931
10844 10848 10858 10868 10878 10883 10891 10901 10899 10906 10910 10914 10918 10920 10925 10930 10930 10930 10934 10937 10939 10943 10943 10946 10948 10949 10951 10953 10954 10955 10957 10958 10959 10960 10960 10960 10960 10959 10958 10957 10955 10952 10948 10946 10943 10940 10937 10933 10928
10828 10834 10845 10857 10862 10867 10874 10883 10887 10889 10895 10899 10906 10906 10914 10927 10924 10919 10922 10928 10932 10935 10937 10939 10941 10943 10943 10946 10948 10950 10951 10952 10953 10954 10954 10955 10955 10954 10953 10951 10949 10947 10944 10941 10939 10935 10931 10925 10921
10812 10817 10833 10841 10847 10853 10858 10864 10873 10876 10879 10883 10891 10903 10901 10918 10913 10909 10913 10917 10921 10925 10929 10931 10934 10937 10937 10939 10941 10943 10945 10946 10948 10948 10948 10949 10949 10948 10947 10946 10944 10942 10939 10937 10934 10930 10925 10920 10916
10793 10798 10816 10828 10833 10838 10839 10848 10853 10863 10863 10869 10887 10881 10891 10911 10895 10896 10901 10907 10911 10915 10919 10923 10925 10929 10931 10932 10934 10935 10938 10939 10941 10941 10941 10942 10942 10941 10942 10941 10940 10938 10936 10932 10929 10925 10921 10916 10911
10772 10786 10804 10810 10811 10819 10819 10827 10836 10841 10852 10861 10868 10870 10884 10884 10885 10890 10889 10892 10899 10904 10910 10915 10915 10919 10922 10924 10926 10928 10929 10930 10932 10934 10934 10934 10935 10934 10935 10935 10935 10933 10930 10927 10924 10920 10917 10911 10905
10756 10770 10782 10781 10787 10793 10796 10807 10819 10823 10835 10843 10852 10855 10865 10871 10878 10880 10881 10881 10888 10893 10896 10904 10905 10910 10913 10916 10918 10919 10918 10920 10922 10926 10928 10928 10927 10927 10928 10928 10928 10927 10924 10921 10919 10915 10912 10908 10901
10740 10755 10754 10763 10767 10772 10783 10794 10801 10807 10818 10828 10830 10839 10855 10863 10860 10865 10870 10874 10880 10883 10887 10892 10895 10899 10903 10907 10907 10909 10908 10911 10914 10917 10920 10921 10919 10919 10921 10920 10920 10919 10918 10916 10913 10911 10906 10902 10898
10725 10732 10738 10744 10748 10758 10771 10771 10778 10791 10802 10802 10820 10833 10840 10843 10847 10852 10859 10866 10868 10873 10876 10879 10882 10888 10891 10895 10896 10898 10899 10900 10903 10907 10911 10914 10913 10911 10913 10911 10910 10911 10910 10908 10907 10904 10901 10897 10892
10711 10710 10719 10729 10732 10740 10743 10752 10760 10776 10785 10785 10802 10815 10823 10826 10832 10837 10846 10851 10856 10860 10862 10866 10871 10876 10878 10883 10885 10889 10890 10890 10892 10895 10899 10903 10904 10902 10904 10903 10900 10902 10901 10900 10899 10897 10893 10891 10886
10689 10697 10705 10707 10713 10720 10727 10730 10740 10765 10760 10773 10789 10792 10804 10810 10813 10820 10833 10833 10839 10848 10847 10851 10858 10863 10865 10870 10872 10878 10877 10879 10882 10885 10886 10891 10893 10893 10895 10895 10891 10892 10891 10890 10890 10889 10886 10884 10879
10673 10676 10683 10693 10695 10701 10704 10721 10735 10731 10734 10755 10771 10765 10781 10791 10797 10804 10810 10822 10823 10831 10836 10840 10845 10849 10854 10858 10858 10864 10867 10871 10874 10876 10875 10880 10881 10883 10886 10885 10883 10882 10881 10880 10879 10880 10878 10876 10872
10653 10661 10667 10671 10675 10687 10688 10709 10706 10709 10727 10745 10744 10743 10764 10769 10776 10784 10793 10802 10806 10814 10822 10830 10833 10839 10843 10846 10848 10850 10855 10861 10864 10866 10867 10871 10870 10873 10876 10874 10874 10875 10872 10870 10869 10868 10868 10867 10864
10634 10642 10645 10646 10666 10664 10673 10683 10683 10704 10710 10714 10722 10729 10737 10744 10758 10767 10773 10779 10786 10796 10806 10817 10825 10822 10829 10833 10838 10842 10843 10849 10855 10854 10852 10860 10858 10862 10866 10863 10864 10864 10861 10862 10860 10857 10855 10855 10853
10609 10624 10627 10637 10644 10644 10657 10664 10666 10685 10682 10694 10702 10711 10716 10722 10738 10743 10751 10763 10766 10774 10786 10799 10813 10811 10814 10820 10827 10833 10832 10834 10838 10844 10841 10845 10846 10852 10854 10854 10854 10854 10852 10854 10852 10849 10846 10844 10841
10598 10600 10605 10611 10614 10637 10633 10645 10651 10661 10667 10672 10679 10687 10693 10702 10715 10722 10731 10740 10745 10754 10765 10781 10795 10802 10804 10805 10816 10818 10819 10824 10827 10830 10830 10832 10836 10840 10841 10843 10844 10845 10845 10845 10843 10840 10840 10839 10835
10574 10580 10587 10589 10600 10616 10616 10624 10629 10636 10644 10649 10658 10666 10672 10682 10690 10700 10713 10722 10729 10739 10749 10761 10775 10789 10791 10797 10802 10802 10810 10815 10814 10817 10820 10824 10825 10825 10827 10832 10836 10835 10835 10836 10836 10832 10831 10831 10828
10555 10560 10566 10571 10582 10592 10590 10605 10605 10611 10625 10631 10637 10641 10650 10661 10671 10680 10693 10702 10714 10721 10732 10742 10753 10765 10773 10781 10792 10793 10793 10799 10806 10805 10811 10812 10814 10814 10820 10821 10826 10824 10823 10827 10825 10824 10820 10824 10821
10538 10541 10549 10555 10557 10565 10575 10583 10586 10591 10596 10607 10615 10623 10631 10641 10650 10660 10669 10682 10692 10705 10715 10721 10730 10743 10752 10761 10772 10778 10784 10787 10790 10797 10798 10802 10805 10807 10813 10812 10812 10814 10813 10815 10820 10817 10814 10810 10811
10522 10526 10532 10531 10537 10541 10549 10558 10560 10567 10573 10583 10594 10603 10610 10619 10628 10638 10649 10659 10670 10677 10686 10694 10704 10718 10728 10739 10747 10759 10768 10772 10779 10796 10809 10794 10799 10807 10806 10787 10795 10801 10800 10804 10807 10810 10806 10801 10797
10506 10510 10512 10514 10516 10524 10528 10535 10543 10536 10548 10562 10574 10579 10589 10598 10607 10616 10622 10632 10640 10651 10662 10674 10684 10690 10702 10716 10726 10737 10749 10755 10764 10785 10790 10761 10790 10797 10786 10783 10785 10788 10788 10791 10795 10798 10796 10788 10790
10488 10491 10496 10497 10499 10512 10505 10517 10519 10522 10532 10532 10550 10559 10567 10575 10583 10591 10597 10609 10618 10625 10637 10650 10657 10668 10675 10689 10703 10715 10725 10735 10746 10757 10767 10769 10782 10787 10785 10775 10780 10778 10778 10781 10783 10785 10783 10779 10779
10467 10471 10478 10478 10483 10490 10483 10504 10496 10502 10515 10513 10522 10535 10544 10552 10559 10570 10577 10584 10597 10601 10610 10622 10634 10644 10653 10664 10677 10690 10702 10712 10724 10735 10743 10749 10759 10768 10769 10772 10770 10768 10769 10769 10772 10772 10769 10769 10764
10447 10451 10455 10461 10468 10471 10475 10484 10479 10486 10486 10494 10498 10511 10519 10528 10535 10545 10555 10562 10568 10582 10592 10596 10604 10615 10627 10640 10652 10665 10678 10691 10701 10713 10721 10729 10738 10746 10751 10759 10753 10755 10757 10759 10758 10758 10758 10757 10754
10428 10432 10436 10443 10449 10453 10461 10463 10468 10459 10469 10472 10482 10489 10494 10502 10511 10519 10527 10536 10544 10551 10562 10571 10578 10585 10596 10610 10626 10641 10656 10669 10682 10692 10702 10711 10718 10726 10733 10740 10743 10742 10744 10743 10743 10744 10747 10743 10741
10411 10415 10417 10421 10430 10435 10443 10444 10442 10445 10447 10461 10460 10465 10474 10479 10486 10493 10500 10509 10520 10526 10534 10547 10557 10570 10578 10590 10602 10619 10634 10648 10662 10673 10685 10694 10700 10707 10714 10722 10727 10729 10729 10730 10729 10728 10732 10728 10725
10395 10399 10400 10403 10411 10414 10420 10433 10426 10426 10430 10436 10438 10445 10448 10459 10467 10470 10476 10485 10494 10503 10512 10520 10531 10543 10557 10565 10575 10594 10612 10626 10640 10657 10670 10676 10685 10691 10697 10703 10711 10713 10715 10717 10717 10714 10716 10718 10711